Burns, OR

12:55 AM PST on February 14, 2016 (GMT -0800)
Burns Municipal

Weather History for KBNO - August, 2013

Change the Weather History Date:

Friday, August 30, 2013

  Actual Average Record
Temperature  
Mean Temperature 64 °F 61 °F  
Max Temperature 85 °F 81 °F 95 °F (1950)
Min Temperature 43 °F 42 °F 31 °F (1999)
Degree Days  
Heating Degree Days 1 5  
Month to date heating degree days 32 73  
Since 1 June heating degree days 224 349  
Since 1 July heating degree days 36 131  
Cooling Degree Days 0 1  
Month to date cooling degree days 75 72  
Year to date cooling degree days 350 204  
Since 1 June cooling degree days 349 201  
Growing Degree Days 14 (Base 50)    
Moisture  
Dew Point 39 °F    
Average Humidity 51    
Maximum Humidity 83    
Minimum Humidity 19    
Precipitation  
Precipitation 0.00 in 0.02 in 0.99 in (1984)
Month to date precipitation 0.51 0.35  
Year to date precipitation 3.92 6.97  
Sea Level Pressure  
Sea Level Pressure 30.06 in    
Wind  
Wind Speed 4 mph (West)    
Max Wind Speed 14 mph    
Max Gust Speed 20 mph    
Visibility 10 miles    
Events      
T = Trace of Precipitation, MM = Missing Value Source: NWS Daily Summary

Daily Weather History Graph

Daily Weather History Graph

Search for Another Location

Airport or City:

Trip Planner

Search our weather history database for the weather conditions in past years. The results will help you decide how hot, cold, wet, or windy it might be!

Date:

Astronomy

Aug. 30, 2013 Rise Set
Actual Time 6:17 AM PDT 7:34 PM PDT
Civil Twilight 5:48 AM PDT 8:03 PM PDT
Nautical Twilight 5:12 AM PDT 8:39 PM PDT
Astronomical Twilight 4:34 AM PDT 9:16 PM PDT
Moon 12:54 AM PDT (8/30) 3:58 PM PDT (8/30)
Length of Visible Light 14h 15m
Length of Day
13h 16m
Waning Crescent, 28% of the Moon is Illuminated
Aug 30
Waning Crescent
Sep 5
New
Sep 12
First Quarter
Sep 19
Full
Sep 26
Last Quarter

Hourly Weather History & Observations

Time (PDT) Temp. Dew Point Humidity Pressure Visibility Wind Dir Wind Speed Gust Speed Precip Events Conditions
12:53 AM 48.0 °F 30.9 °F 52% 30.05 in 10.0 mi Calm Calm - N/A   Clear
1:53 AM 57.0 °F 41.0 °F 55% 30.04 in 10.0 mi WNW 4.6 mph - N/A   Clear
2:53 AM 57.0 °F 45.0 °F 64% 30.04 in 10.0 mi WNW 8.1 mph - N/A   Clear
3:53 AM 52.0 °F 46.0 °F 80% 30.06 in 10.0 mi WNW 6.9 mph - N/A   Clear
4:53 AM 46.9 °F 32.0 °F 56% 30.08 in 10.0 mi Calm Calm - N/A   Clear
5:53 AM 45.0 °F 34.0 °F 65% 30.11 in 10.0 mi Calm Calm - N/A   Clear
6:53 AM 48.0 °F 36.0 °F 63% 30.14 in 10.0 mi Calm Calm - N/A   Clear
7:53 AM 57.9 °F 42.1 °F 56% 30.15 in 10.0 mi Calm Calm - N/A   Clear
8:53 AM 63.0 °F 43.0 °F 48% 30.15 in 10.0 mi ENE 3.5 mph - N/A   Clear
9:53 AM 70.0 °F 46.0 °F 42% 30.14 in 10.0 mi Calm Calm - N/A   Clear
10:53 AM 73.9 °F 46.0 °F 37% 30.14 in 10.0 mi Variable 3.5 mph - N/A   Clear
11:53 AM 75.9 °F 45.0 °F 33% 30.13 in 10.0 mi West 5.8 mph - N/A   Clear
12:53 PM 79.0 °F 45.0 °F 30% 30.11 in 10.0 mi SSE 9.2 mph 16.1 mph N/A   Clear
1:53 PM 81.0 °F 41.0 °F 24% 30.07 in 10.0 mi SE 8.1 mph - N/A   Clear
2:53 PM 82.9 °F 39.9 °F 22% 30.04 in 10.0 mi ESE 9.2 mph - N/A   Clear
3:53 PM 84.0 °F 39.9 °F 21% 30.03 in 10.0 mi South 9.2 mph - N/A   Clear
4:53 PM 84.9 °F 39.0 °F 20% 30.02 in 10.0 mi WNW 5.8 mph - N/A   Clear
5:53 PM 84.9 °F 37.9 °F 19% 30.00 in 10.0 mi North 4.6 mph - N/A   Clear
6:53 PM 82.0 °F 37.0 °F 20% 29.99 in 10.0 mi East 3.5 mph - N/A   Clear
7:53 PM 73.9 °F 37.0 °F 26% 29.99 in 10.0 mi Calm Calm - N/A   Clear
8:53 PM 62.1 °F 32.0 °F 32% 30.01 in 10.0 mi Calm Calm - N/A   Clear
9:53 PM 57.0 °F 32.0 °F 39% 30.01 in 10.0 mi West 6.9 mph - N/A   Clear
10:53 PM 55.0 °F 35.1 °F 47% 30.02 in 10.0 mi West 3.5 mph - N/A   Clear
11:53 PM 51.1 °F 36.0 °F 56% 30.03 in 10.0 mi West 6.9 mph - N/A   Clear